TimeCST,TemperatureF,Dew PointF,Humidity,Sea Level PressureIn,VisibilityMPH,Wind Direction,Wind SpeedMPH,Gust SpeedMPH,PrecipitationIn,Events,Conditions,WindDirDegrees,DateUTC
12:55 AM,12.0,9.0,88,29.99,4.0,SSW,3.5,-,N/A,,Clear,200,2014-02-13 06:55:00
1:55 AM,16.0,10.9,81,29.95,8.0,SW,3.5,-,N/A,,Clear,220,2014-02-13 07:55:00
2:55 AM,17.1,10.9,77,29.95,8.0,SSW,4.6,-,N/A,,Clear,200,2014-02-13 08:55:00
3:25 AM,18.0,12.0,78,29.90,9.0,SW,6.9,-,N/A,,Mostly Cloudy,220,2014-02-13 09:25:00
3:55 AM,19.0,10.9,71,29.93,10.0,SW,6.9,-,N/A,,Mostly Cloudy,230,2014-02-13 09:55:00
4:55 AM,19.9,12.9,74,29.90,9.0,SSW,9.2,-,N/A,,Overcast,200,2014-02-13 10:55:00
5:12 AM,19.9,14.0,78,29.86,9.0,South,8.1,-,N/A,,Mostly Cloudy,190,2014-02-13 11:12:00
5:55 AM,21.9,15.1,75,29.91,8.0,SW,8.1,-,N/A,,Overcast,230,2014-02-13 11:55:00
6:55 AM,21.9,16.0,78,29.88,7.0,SW,9.2,-,N/A,,Clear,220,2014-02-13 12:55:00
7:55 AM,23.0,16.0,74,29.87,5.0,SSW,10.4,-,N/A,,Haze,210,2014-02-13 13:55:00
8:55 AM,26.1,19.0,75,29.85,5.0,SW,11.5,-,N/A,,Haze,220,2014-02-13 14:55:00
9:55 AM,30.0,21.9,72,29.83,5.0,SW,11.5,-,N/A,,Haze,220,2014-02-13 15:55:00
10:55 AM,35.1,24.1,64,29.83,7.0,WSW,12.7,25.3,N/A,,Clear,240,2014-02-13 16:55:00
11:55 AM,36.0,25.0,64,29.80,7.0,WSW,13.8,24.2,N/A,,Clear,250,2014-02-13 17:55:00
12:55 PM,39.0,26.1,60,29.75,8.0,WSW,10.4,-,N/A,,Clear,250,2014-02-13 18:55:00
1:55 PM,39.9,27.0,60,29.73,9.0,SW,13.8,20.7,N/A,,Clear,230,2014-02-13 19:55:00
2:55 PM,42.1,27.0,55,29.71,10.0,SW,10.4,-,N/A,,Clear,230,2014-02-13 20:55:00
3:55 PM,42.1,27.0,55,29.73,10.0,West,12.7,19.6,N/A,,Clear,260,2014-02-13 21:55:00
4:55 PM,42.1,28.0,58,29.74,10.0,West,10.4,21.9,N/A,,Clear,260,2014-02-13 22:55:00
5:55 PM,39.9,28.0,63,29.75,10.0,West,9.2,-,N/A,,Clear,260,2014-02-13 23:55:00
6:55 PM,39.0,28.0,65,29.76,10.0,West,8.1,-,N/A,,Clear,260,2014-02-14 00:55:00
7:55 PM,37.9,28.0,68,29.78,10.0,West,8.1,-,N/A,,Clear,260,2014-02-14 01:55:00
8:55 PM,35.1,27.0,72,29.79,10.0,WNW,4.6,-,N/A,,Clear,290,2014-02-14 02:55:00
9:55 PM,28.9,24.1,82,29.80,10.0,WNW,4.6,-,N/A,,Clear,300,2014-02-14 03:55:00
10:55 PM,30.0,24.1,79,29.79,10.0,NNW,3.5,-,N/A,,Partly Cloudy,330,2014-02-14 04:55:00
11:55 PM,24.1,21.0,88,29.79,9.0,Calm,Calm,-,N/A,,Overcast,0,2014-02-14 05:55:00